Home   Weather   Faversham   Past weeks
Flag for United Kingdom

Past Weather in Faversham, England, United Kingdom — Yesterday and Last 2 Weeks

Now
49 °F

Cool.


Feels Like: 42 °F
Forecast: 49 / 41 °F
Wind: 23 mph from Northeast

Location: Shoeburyness

Current Time: Mar 28, 2020 at 12:48:09 pm

Latest Report: Mar 28, 2020 at 12:00 pm


Visibility: 14 mi

Pressure: 30.39 "Hg

Humidity: 67%

Dew Point: 39 °F

Location of FavershamLocation

Past Weather in Faversham — Graph

°F

Faversham Temperature Yesterday

Maximum temperature yesterday: 53 °F (at 3:00 pm)
Minimum temperature yesterday: 37 °F (at 6:00 am)
Average temperature yesterday: 45 °F

High & Low Weather Summary for the Past Weeks

 TemperatureHumidityPressure
High58 °F (Mar 18, 2:00 pm)99% (Mar 19, 4:00 am)30.40 "Hg (Mar 19, 4:00 am)
Low33 °F (Mar 26, 6:00 am)44% (Mar 26, 2:00 pm)29.73 "Hg (Mar 15, 2:00 pm)
Average46 °F77%30.22 "Hg
* Reported Mar 13 11:00 am — Mar 28 11:00 am, Faversham. Weather by CustomWeather, © 2020

Note: Actual official high and low records may vary slightly from our data, if they occured in-between our weather recording intervals... More about our weather records

Faversham Weather History for the Previous 24 Hours

Scroll right to see more
 ConditionsComfort  
Time TempWeatherWind HumidityBarometerVisibility
11:00 am
Sat, Mar 28
50 °FCool.24 mph64%30.37 "Hg14 mi
10:00 am49 °FCool.24 mph63%30.34 "Hg7 mi
9:00 am47 °FCool.23 mph72%30.33 "Hg7 mi
8:00 am45 °FQuite cool.21 mph77%30.31 "Hg6 mi
7:00 am42 °FSmoke.17 mph84%30.29 "Hg6 mi
6:00 am41 °FSmoke.16 mph86%30.27 "Hg6 mi
5:00 am41 °FQuite cool.16 mph84%30.26 "Hg7 mi
4:00 am41 °FQuite cool.16 mph83%30.25 "Hg7 mi
3:00 am42 °FQuite cool.14 mph85%30.25 "Hg7 mi
2:00 am42 °FQuite cool.15 mph84%30.24 "Hg7 mi
1:00 am42 °FQuite cool.15 mph84%30.24 "Hg7 mi
12:00 am42 °FQuite cool.14 mph81%30.24 "Hg7 mi
11:00 pm
Fri, Mar 27
42 °FQuite cool.14 mph79%30.24 "Hg8 mi
10:00 pm42 °FQuite cool.15 mph79%30.24 "Hg7 mi
9:00 pm43 °FQuite cool.14 mph72%30.24 "Hg9 mi
8:00 pm44 °FQuite cool.15 mph64%30.23 "Hg12 mi
7:00 pm46 °FCool.13 mph57%30.22 "Hg19 mi
6:00 pm48 °FCool.13 mph56%30.20 "Hg22 mi
5:00 pm50 °FCool.15 mph58%30.19 "Hg14 mi
4:00 pm52 °FCool.17 mph52%30.18 "Hg16 mi
3:00 pm53 °FCool.21 mph48%30.19 "Hg12 mi
2:00 pm53 °FCool.21 mph46%30.21 "Hg13 mi
1:00 pm53 °FCool.22 mph46%30.22 "Hg14 mi
12:00 pm52 °FCool.23 mph49%30.23 "Hg16 mi
Weather by CustomWeather, © 2020

See weather overview

Advertising